This is the latest recevied weather packets stored in our database for station/object KN6WGU. If no packets are shown the sender has not sent any weather packets the latest 10 day(s).
| Time | Temp. | Humidity | Pressure | Rain* | Wind** | Luminosity | Snow |
|---|---|---|---|---|---|---|---|
| 1788188692 | 27.22° C | 71% | 1011.1 hPa | 0 mm | - | 138 W/m² | - |
| 1788188391 | 27.22° C | 72% | 1011 hPa | 0 mm | - | 153 W/m² | - |
| 1788188087 | 27.22° C | 73% | 1011.2 hPa | 0 mm | - | 141 W/m² | - |
| 1788187783 | 26.67° C | 75% | 1011.3 hPa | 0 mm | - | 138 W/m² | - |
| 1788187478 | 26.67° C | 75% | 1011.2 hPa | 0 mm | - | 129 W/m² | - |
| 1788187173 | 26.67° C | 77% | 1011.1 hPa | 0 mm | - | 91 W/m² | - |
| 1788186863 | 26.11° C | 77% | 1011.1 hPa | 0 mm | - | 82 W/m² | - |
| 1788186558 | 26.11° C | 78% | 1010.9 hPa | 0 mm | - | 92 W/m² | - |
| 1788186255 | 26.11° C | 78% | 1010.9 hPa | 0 mm | - | 131 W/m² | - |
| 1788185954 | 26.11° C | 78% | 1011 hPa | 0 mm | - | 170 W/m² | - |
| 1788185648 | 25.56° C | 79% | 1011.2 hPa | 0 mm | - | 158 W/m² | - |
| 1788185343 | 25.56° C | 80% | 1011.2 hPa | 0 mm | - | 137 W/m² | - |
| 1788185038 | 25.56° C | 81% | 1011 hPa | 0 mm | - | 116 W/m² | - |
| 1788184737 | 25.56° C | 81% | 1011.1 hPa | 0 mm | - | 93 W/m² | - |
| 1788184431 | 25.56° C | 81% | 1011.1 hPa | 0 mm | - | 107 W/m² | - |
| 1788184126 | 25.56° C | 80% | 1011.1 hPa | 0 mm | - | 139 W/m² | - |
| 1788183823 | 25° C | 81% | 1011.2 hPa | 0 mm | - | 128 W/m² | - |
| 1788183522 | 25° C | 82% | 1011 hPa | 0 mm | - | 112 W/m² | - |
| 1788183222 | 24.44° C | 82% | 1011 hPa | 0 mm | - | 95 W/m² | - |
| 1788182917 | 24.44° C | 82% | 1011.3 hPa | 0 mm | - | 79 W/m² | - |
| 1788182613 | 24.44° C | 82% | 1011 hPa | 0 mm | - | 67 W/m² | - |
| 1788182312 | 24.44° C | 82% | 1011.1 hPa | 0 mm | - | 67 W/m² | - |
| 1788182008 | 24.44° C | 83% | 1011.2 hPa | 0 mm | - | 59 W/m² | - |
| 1788181703 | 24.44° C | 83% | 1011.3 hPa | 0 mm | - | 55 W/m² | - |
| 1788181399 | 24.44° C | 83% | 1011.2 hPa | 0 mm | - | 51 W/m² | - |
* Rain latest hour (hover to see other rain measurements)
** Current wind speed in m/s (hover to see current wind gust speed)